Time,TemperatureF,DewpointF,PressureIn,WindDirection,WindDirectionDegrees,WindSpeedMPH,WindSpeedGustMPH,Humidity,HourlyPrecipIn,Conditions,Clouds,dailyrainin,SoftwareType,DateUTC
2013-05-01 00:03:00,69.7,66.6,29.78,SE,129,2.3,2.3,90,0.00,CLR,,0.00,WeatherDisplay:10.37,2013-05-01 05:03:00,
2013-05-01 00:08:00,69.5,66.4,29.78,ESE,114,3.5,3.5,90,0.00,CLR,,0.00,WeatherDisplay:10.37,2013-05-01 05:08:00,
2013-05-01 00:13:00,69.4,66.3,29.78,East,101,3.5,3.5,90,0.00,CLR,,0.00,WeatherDisplay:10.37,2013-05-01 05:13:00,
2013-05-01 00:18:00,69.2,66.1,29.78,ESE,111,3.5,3.5,90,0.00,CLR,,0.00,WeatherDisplay:10.37,2013-05-01 05:18:00,
2013-05-01 00:23:00,69.0,65.9,29.78,ESE,109,3.5,3.5,90,0.00,CLR,,0.00,WeatherDisplay:10.37,2013-05-01 05:23:00,
2013-05-01 00:28:00,68.9,66.2,29.78,ESE,105,3.5,3.5,91,0.00,CLR,,0.00,WeatherDisplay:10.37,2013-05-01 05:28:00,
2013-05-01 00:33:00,68.7,66.0,29.78,ESE,115,2.3,2.3,91,0.00,CLR,,0.00,WeatherDisplay:10.37,2013-05-01 05:33:00,
2013-05-01 00:38:00,68.6,65.9,29.78,ESE,117,3.5,3.5,91,0.00,CLR,,0.00,WeatherDisplay:10.37,2013-05-01 05:38:00,
2013-05-01 00:43:00,68.4,65.7,29.78,East,90,2.3,2.3,91,0.00,CLR,,0.00,WeatherDisplay:10.37,2013-05-01 05:43:00,
2013-05-01 00:48:00,68.2,65.5,29.78,ESE,113,3.5,3.5,91,0.00,CLR,,0.00,WeatherDisplay:10.37,2013-05-01 05:48:00,
2013-05-01 00:53:00,68.1,65.4,29.78,ESE,111,6.0,6.0,91,0.00,CLR,,0.00,WeatherDisplay:10.37,2013-05-01 05:53:00,
2013-05-01 00:58:00,68.0,65.3,29.78,East,94,4.6,4.6,91,0.00,CLR,,0.00,WeatherDisplay:10.37,2013-05-01 05:58:00,
2013-05-01 01:03:00,68.0,65.3,29.78,ESE,117,5.0,5.0,91,0.00,CLR,,0.00,WeatherDisplay:10.37,2013-05-01 06:03:00,
2013-05-01 01:08:00,67.8,65.1,29.78,ESE,102,12.0,12.0,91,0.00,CLR,,0.00,WeatherDisplay:10.37,2013-05-01 06:08:00,
2013-05-01 01:13:00,67.9,65.2,29.78,SE,127,15.0,15.0,91,0.00,CLR,,0.00,WeatherDisplay:10.37,2013-05-01 06:13:00,
2013-05-01 01:18:00,67.9,65.2,29.78,SE,124,9.2,9.2,91,0.00,CLR,,0.00,WeatherDisplay:10.37,2013-05-01 06:18:00,
2013-05-01 01:23:00,67.7,65.3,29.77,ESE,106,11.5,11.5,92,0.00,CLR,,0.00,WeatherDisplay:10.37,2013-05-01 06:23:00,
2013-05-01 01:28:00,67.7,65.3,29.78,SE,127,10.4,10.4,92,0.00,CLR,,0.00,WeatherDisplay:10.37,2013-05-01 06:28:00,
2013-05-01 01:33:00,67.6,65.2,29.78,East,86,9.2,9.2,92,0.00,CLR,,0.00,WeatherDisplay:10.37,2013-05-01 06:33:00,
2013-05-01 01:38:00,67.5,65.1,29.77,ESE,103,5.8,5.8,92,0.00,CLR,,0.00,WeatherDisplay:10.37,2013-05-01 06:38:00,
2013-05-01 01:43:00,67.4,65.0,29.77,ESE,115,6.9,6.9,92,0.00,CLR,,0.00,WeatherDisplay:10.37,2013-05-01 06:43:00,
2013-05-01 01:48:00,67.4,65.3,29.78,SSE,154,3.5,3.5,93,0.00,CLR,,0.00,WeatherDisplay:10.37,2013-05-01 06:48:00,
2013-05-01 01:53:00,67.5,65.4,29.78,SSE,163,4.6,4.6,93,0.00,CLR,,0.00,WeatherDisplay:10.37,2013-05-01 06:53:00,
2013-05-01 01:58:00,67.6,65.5,29.78,ESE,123,2.3,2.3,93,0.00,CLR,,0.00,WeatherDisplay:10.37,2013-05-01 06:58:00,
2013-05-01 02:03:00,67.7,65.6,29.77,SE,127,4.6,4.6,93,0.00,CLR,,0.00,WeatherDisplay:10.37,2013-05-01 07:03:00,
2013-05-01 02:08:00,67.9,65.8,29.77,SSE,150,3.5,3.5,93,0.00,CLR,,0.00,WeatherDisplay:10.37,2013-05-01 07:08:00,
2013-05-01 02:13:00,68.0,65.9,29.78,SE,146,5.8,5.8,93,0.00,CLR,,0.00,WeatherDisplay:10.37,2013-05-01 07:13:00,
2013-05-01 02:18:00,68.2,66.1,29.78,SSW,193,8.1,8.1,93,0.00,CLR,,0.00,WeatherDisplay:10.37,2013-05-01 07:18:00,
2013-05-01 02:23:00,68.4,66.3,29.78,SE,137,8.1,8.1,93,0.00,CLR,,0.00,WeatherDisplay:10.37,2013-05-01 07:23:00,
2013-05-01 02:28:00,68.5,66.4,29.78,South,174,5.8,5.8,93,0.00,CLR,,0.00,WeatherDisplay:10.37,2013-05-01 07:28:00,
2013-05-01 02:33:00,68.6,66.5,29.78,SE,141,9.2,9.2,93,0.00,CLR,,0.00,WeatherDisplay:10.37,2013-05-01 07:33:00,
2013-05-01 02:38:00,68.8,66.4,29.78,South,175,4.6,4.6,92,0.00,CLR,,0.00,WeatherDisplay:10.37,2013-05-01 07:38:00,
2013-05-01 02:43:00,68.9,66.5,29.78,SE,134,8.1,8.1,92,0.00,CLR,,0.00,WeatherDisplay:10.37,2013-05-01 07:43:00,
2013-05-01 02:48:00,69.0,66.6,29.77,ESE,112,4.6,4.6,92,0.00,CLR,,0.00,WeatherDisplay:10.37,2013-05-01 07:48:00,
2013-05-01 02:53:00,69.1,66.7,29.77,ESE,102,3.5,4.5,92,0.00,CLR,,0.00,WeatherDisplay:10.37,2013-05-01 07:53:00,
2013-05-01 02:58:00,69.2,66.8,29.77,SE,135,3.5,3.5,92,0.00,CLR,,0.00,WeatherDisplay:10.37,2013-05-01 07:58:00,
2013-05-01 03:03:00,69.2,66.8,29.77,SE,146,3.5,3.5,92,0.00,CLR,,0.00,WeatherDisplay:10.37,2013-05-01 08:03:00,
2013-05-01 03:08:00,69.2,66.8,29.77,SE,138,4.6,4.6,92,0.00,CLR,,0.00,WeatherDisplay:10.37,2013-05-01 08:08:00,
2013-05-01 03:13:00,69.3,66.9,29.76,SSE,152,4.6,4.6,92,0.00,CLR,,0.00,WeatherDisplay:10.37,2013-05-01 08:13:00,
2013-05-01 03:18:00,69.3,66.6,29.76,SSE,157,3.5,3.5,91,0.00,CLR,,0.00,WeatherDisplay:10.37,2013-05-01 08:18:00,
2013-05-01 03:23:00,69.3,66.6,29.76,ESE,105,4.0,4.0,91,0.00,CLR,,0.00,WeatherDisplay:10.37,2013-05-01 08:23:00,
2013-05-01 03:28:00,69.4,66.7,29.76,ESE,117,3.5,3.5,91,0.00,CLR,,0.00,WeatherDisplay:10.37,2013-05-01 08:28:00,
2013-05-01 03:33:00,69.3,66.6,29.76,East,89,0.0,0.0,91,0.00,CLR,,0.00,WeatherDisplay:10.37,2013-05-01 08:33:00,
2013-05-01 03:38:00,69.3,66.6,29.76,ESE,117,0.0,0.0,91,0.00,CLR,,0.00,WeatherDisplay:10.37,2013-05-01 08:38:00,
2013-05-01 03:43:00,69.4,66.7,29.77,ENE,78,0.0,0.0,91,0.00,CLR,,0.00,WeatherDisplay:10.37,2013-05-01 08:43:00,
2013-05-01 03:48:00,69.4,66.7,29.78,NNE,27,0.0,0.0,91,0.00,CLR,,0.00,WeatherDisplay:10.37,2013-05-01 08:48:00,
2013-05-01 03:53:00,69.4,66.7,29.78,NNE,28,1.1,0.0,91,0.00,CLR,,0.00,WeatherDisplay:10.37,2013-05-01 08:53:00,
2013-05-01 03:58:00,69.4,66.7,29.77,NE,53,1.1,0.0,91,0.00,CLR,,0.00,WeatherDisplay:10.37,2013-05-01 08:58:00,
2013-05-01 04:03:00,69.3,66.9,29.77,ENE,75,1.1,1.1,92,0.00,CLR,,0.00,WeatherDisplay:10.37,2013-05-01 09:03:00,
2013-05-01 04:08:00,69.3,66.9,29.77,East,85,0.0,0.0,92,0.00,CLR,,0.00,WeatherDisplay:10.37,2013-05-01 09:08:00,
2013-05-01 04:13:00,69.2,66.8,29.78,North,1,0.0,0.0,92,0.00,CLR,,0.00,WeatherDisplay:10.37,2013-05-01 09:13:00,
2013-05-01 04:18:00,69.2,66.8,29.78,NNW,333,0.0,0.2,92,0.00,CLR,,0.00,WeatherDisplay:10.37,2013-05-01 09:18:00,
2013-05-01 04:23:00,69.2,66.8,29.78,North,357,0.0,0.0,92,0.00,CLR,,0.00,WeatherDisplay:10.37,2013-05-01 09:23:00,
2013-05-01 04:28:00,69.3,66.9,29.77,ENE,73,0.0,0.0,92,0.00,CLR,,0.00,WeatherDisplay:10.37,2013-05-01 09:28:00,
2013-05-01 04:33:00,69.3,66.9,29.77,ENE,75,0.0,0.0,92,0.00,CLR,,0.00,WeatherDisplay:10.37,2013-05-01 09:33:00,
2013-05-01 04:38:00,69.3,66.9,29.78,ENE,71,0.0,0.0,92,0.00,CLR,,0.00,WeatherDisplay:10.37,2013-05-01 09:38:00,
2013-05-01 04:43:00,69.2,66.8,29.78,North,4,0.0,0.0,92,0.00,CLR,,0.00,WeatherDisplay:10.37,2013-05-01 09:43:00,
2013-05-01 04:48:00,69.2,66.8,29.77,North,4,0.0,0.0,92,0.00,CLR,,0.00,WeatherDisplay:10.37,2013-05-01 09:48:00,
2013-05-01 04:53:00,69.2,66.8,29.77,SE,136,0.0,0.0,92,0.00,CLR,,0.00,WeatherDisplay:10.37,2013-05-01 09:53:00,
2013-05-01 04:58:00,69.1,66.7,29.77,SE,135,0.0,0.0,92,0.00,CLR,,0.00,WeatherDisplay:10.37,2013-05-01 09:58:00,
2013-05-01 05:03:00,68.9,66.5,29.77,SE,135,0.0,0.0,92,0.00,CLR,,0.00,WeatherDisplay:10.37,2013-05-01 10:03:00,
2013-05-01 05:08:00,68.9,66.5,29.77,SE,130,0.0,0.0,92,0.00,CLR,,0.00,WeatherDisplay:10.37,2013-05-01 10:08:00,
2013-05-01 05:13:00,68.7,66.6,29.77,SE,130,0.0,0.0,93,0.00,CLR,,0.00,WeatherDisplay:10.37,2013-05-01 10:13:00,
2013-05-01 05:18:00,68.7,66.6,29.76,SSE,156,0.0,0.0,93,0.00,CLR,,0.00,WeatherDisplay:10.37,2013-05-01 10:18:00,
2013-05-01 05:23:00,68.4,66.0,29.77,SSE,157,0.0,0.0,92,0.00,CLR,,0.00,WeatherDisplay:10.37,2013-05-01 10:23:00,
2013-05-01 05:28:00,68.2,66.1,29.77,SSE,157,0.0,0.0,93,0.00,CLR,,0.00,WeatherDisplay:10.37,2013-05-01 10:28:00,
2013-05-01 05:33:00,68.1,66.0,29.77,SSE,157,0.0,0.0,93,0.00,CLR,,0.00,WeatherDisplay:10.37,2013-05-01 10:33:00,
2013-05-01 05:38:00,67.8,65.7,29.77,SSE,156,0.0,0.0,93,0.00,CLR,,0.00,WeatherDisplay:10.37,2013-05-01 10:38:00,
2013-05-01 05:43:00,68.0,66.2,29.77,SE,125,0.0,0.0,94,0.00,CLR,,0.00,WeatherDisplay:10.37,2013-05-01 10:43:00,
2013-05-01 05:48:00,68.0,65.9,29.76,SE,144,0.0,0.0,93,0.00,CLR,,0.00,WeatherDisplay:10.37,2013-05-01 10:48:00,
2013-05-01 05:53:00,67.8,65.7,29.76,ESE,121,0.0,0.0,93,0.00,CLR,,0.00,WeatherDisplay:10.37,2013-05-01 10:53:00,
2013-05-01 05:58:00,67.7,65.9,29.77,ESE,121,0.0,0.0,94,0.00,CLR,,0.00,WeatherDisplay:10.37,2013-05-01 10:58:00,
2013-05-01 06:03:00,67.7,65.9,29.77,SE,142,1.1,0.0,94,0.00,CLR,,0.00,WeatherDisplay:10.37,2013-05-01 11:03:00,
2013-05-01 06:08:00,67.7,65.9,29.77,SE,137,1.1,0.0,94,0.00,CLR,,0.00,WeatherDisplay:10.37,2013-05-01 11:08:00,
2013-05-01 06:13:00,67.8,66.0,29.77,SE,139,1.1,1.1,94,0.00,CLR,,0.00,WeatherDisplay:10.37,2013-05-01 11:13:00,
2013-05-01 06:18:00,67.9,66.1,29.77,SSE,162,2.3,2.3,94,0.00,CLR,,0.00,WeatherDisplay:10.37,2013-05-01 11:18:00,
2013-05-01 06:23:00,67.9,66.1,29.77,South,169,3.5,3.5,94,0.00,CLR,,0.00,WeatherDisplay:10.37,2013-05-01 11:23:00,
2013-05-01 06:28:00,67.9,66.1,29.78,ESE,122,1.1,1.1,94,0.00,CLR,,0.00,WeatherDisplay:10.37,2013-05-01 11:28:00,
2013-05-01 06:33:00,67.9,66.1,29.78,ESE,111,1.1,1.1,94,0.00,CLR,,0.00,WeatherDisplay:10.37,2013-05-01 11:33:00,
2013-05-01 06:38:00,68.0,66.2,29.78,SE,126,2.3,2.3,94,0.00,CLR,,0.00,WeatherDisplay:10.37,2013-05-01 11:38:00,
2013-05-01 06:43:00,68.0,66.2,29.78,ESE,109,1.1,1.1,94,0.00,CLR,,0.00,WeatherDisplay:10.37,2013-05-01 11:43:00,
2013-05-01 06:48:00,68.0,66.2,29.78,ESE,115,1.1,1.1,94,0.00,CLR,,0.00,WeatherDisplay:10.37,2013-05-01 11:48:00,
2013-05-01 06:53:00,68.0,66.2,29.78,SE,142,0.0,0.0,94,0.00,CLR,,0.00,WeatherDisplay:10.37,2013-05-01 11:53:00,
2013-05-01 06:58:00,68.0,66.2,29.78,SE,132,0.0,0.0,94,0.00,CLR,,0.00,WeatherDisplay:10.37,2013-05-01 11:58:00,
2013-05-01 07:03:00,68.1,66.3,29.79,East,99,0.0,0.0,94,0.00,CLR,,0.00,WeatherDisplay:10.37,2013-05-01 12:03:00,
2013-05-01 07:08:00,68.1,66.3,29.79,NE,54,1.1,1.1,94,0.00,CLR,,0.00,WeatherDisplay:10.37,2013-05-01 12:08:00,
2013-05-01 07:13:00,68.1,66.3,29.79,NE,56,0.0,0.0,94,0.00,CLR,,0.00,WeatherDisplay:10.37,2013-05-01 12:13:00,
2013-05-01 07:18:00,68.1,66.3,29.79,ENE,57,0.0,0.0,94,0.00,CLR,,0.00,WeatherDisplay:10.37,2013-05-01 12:18:00,
2013-05-01 07:23:00,68.1,66.3,29.79,ENE,60,1.1,1.1,94,0.00,CLR,,0.00,WeatherDisplay:10.37,2013-05-01 12:23:00,
2013-05-01 07:28:00,68.1,66.3,29.79,East,92,2.3,2.3,94,0.00,CLR,,0.00,WeatherDisplay:10.37,2013-05-01 12:28:00,
2013-05-01 07:33:00,68.2,66.4,29.79,ESE,117,0.0,0.0,94,0.00,CLR,,0.00,WeatherDisplay:10.37,2013-05-01 12:33:00,
2013-05-01 07:38:00,68.3,66.5,29.79,ESE,115,2.0,2.0,94,0.00,CLR,,0.00,WeatherDisplay:10.37,2013-05-01 12:38:00,
2013-05-01 07:43:00,68.3,66.5,29.79,SE,127,1.1,1.1,94,0.00,CLR,,0.00,WeatherDisplay:10.37,2013-05-01 12:43:00,
2013-05-01 07:48:00,68.5,66.7,29.79,East,84,2.3,2.3,94,0.00,CLR,,0.00,WeatherDisplay:10.37,2013-05-01 12:48:00,
2013-05-01 07:53:00,68.6,66.8,29.80,ESE,110,3.5,3.5,94,0.00,CLR,,0.00,WeatherDisplay:10.37,2013-05-01 12:53:00,
2013-05-01 07:58:00,69.0,67.2,29.80,ESE,109,1.1,1.1,94,0.00,CLR,,0.00,WeatherDisplay:10.37,2013-05-01 12:58:00,
2013-05-01 08:03:00,69.2,67.4,29.80,East,99,2.3,2.3,94,0.00,CLR,,0.00,WeatherDisplay:10.37,2013-05-01 13:03:00,
2013-05-01 08:08:00,69.3,67.5,29.80,East,96,3.5,3.5,94,0.00,CLR,,0.00,WeatherDisplay:10.37,2013-05-01 13:08:00,
2013-05-01 08:13:00,69.5,67.7,29.80,SE,127,3.5,3.5,94,0.00,CLR,,0.00,WeatherDisplay:10.37,2013-05-01 13:13:00,
2013-05-01 08:18:00,69.7,67.9,29.80,ESE,111,3.5,3.5,94,0.00,CLR,,0.00,WeatherDisplay:10.37,2013-05-01 13:18:00,
2013-05-01 08:23:00,70.1,68.3,29.80,ESE,103,1.1,1.1,94,0.00,CLR,,0.00,WeatherDisplay:10.37,2013-05-01 13:23:00,
2013-05-01 08:28:00,70.4,68.3,29.81,ESE,103,3.5,3.5,93,0.00,CLR,,0.00,WeatherDisplay:10.37,2013-05-01 13:28:00,
2013-05-01 08:33:00,70.7,68.6,29.81,ESE,121,3.5,3.5,93,0.00,CLR,,0.00,WeatherDisplay:10.37,2013-05-01 13:33:00,
2013-05-01 08:38:00,71.1,69.0,29.81,ESE,122,5.0,5.0,93,0.00,CLR,,0.00,WeatherDisplay:10.37,2013-05-01 13:38:00,
2013-05-01 08:43:00,71.5,69.1,29.81,ESE,109,2.3,2.3,92,0.00,CLR,,0.00,WeatherDisplay:10.37,2013-05-01 13:43:00,
2013-05-01 08:48:00,71.8,69.0,29.81,East,84,3.5,3.5,91,0.00,CLR,,0.00,WeatherDisplay:10.37,2013-05-01 13:48:00,
2013-05-01 08:53:00,71.9,69.1,29.81,SE,127,6.9,6.9,91,0.00,CLR,,0.00,WeatherDisplay:10.37,2013-05-01 13:53:00,
2013-05-01 08:58:00,72.1,69.3,29.81,ESE,115,8.1,8.1,91,0.00,CLR,,0.00,WeatherDisplay:10.37,2013-05-01 13:58:00,
2013-05-01 09:03:00,72.1,69.0,29.81,SE,124,8.1,8.1,90,0.00,CLR,,0.00,WeatherDisplay:10.37,2013-05-01 14:03:00,
2013-05-01 09:08:00,72.4,69.3,29.82,ESE,118,7.0,7.0,90,0.00,CLR,,0.00,WeatherDisplay:10.37,2013-05-01 14:08:00,
2013-05-01 09:13:00,72.9,69.5,29.82,SE,131,6.9,6.9,89,0.00,CLR,,0.00,WeatherDisplay:10.37,2013-05-01 14:13:00,
2013-05-01 09:18:00,73.6,69.8,29.82,SSE,151,5.8,5.8,88,0.00,CLR,,0.00,WeatherDisplay:10.37,2013-05-01 14:18:00,
2013-05-01 09:23:00,73.9,69.4,29.82,SSE,148,3.5,3.5,86,0.00,CLR,,0.00,WeatherDisplay:10.37,2013-05-01 14:23:00,
2013-05-01 09:28:00,73.5,69.4,29.82,SE,127,4.6,4.6,87,0.00,CLR,,0.00,WeatherDisplay:10.37,2013-05-01 14:28:00,
2013-05-01 09:33:00,73.8,69.7,29.82,East,86,8.1,8.1,87,0.00,CLR,,0.00,WeatherDisplay:10.37,2013-05-01 14:33:00,
2013-05-01 09:38:00,74.7,70.6,29.82,SE,131,3.5,3.5,87,0.00,CLR,,0.00,WeatherDisplay:10.37,2013-05-01 14:38:00,
2013-05-01 09:43:00,74.9,69.7,29.83,SSE,165,6.9,6.9,84,0.00,CLR,,0.00,WeatherDisplay:10.37,2013-05-01 14:43:00,
2013-05-01 09:48:00,74.8,70.0,29.83,ESE,113,9.2,9.2,85,0.00,CLR,,0.00,WeatherDisplay:10.37,2013-05-01 14:48:00,
2013-05-01 09:53:00,74.6,69.8,29.83,SSE,164,6.9,6.9,85,0.00,CLR,,0.00,WeatherDisplay:10.37,2013-05-01 14:53:00,
2013-05-01 09:58:00,74.5,69.7,29.83,SSE,155,3.5,4.0,85,0.00,CLR,,0.00,WeatherDisplay:10.37,2013-05-01 14:58:00,
2013-05-01 10:03:00,75.2,70.4,29.83,SSE,147,2.3,2.3,85,0.00,CLR,,0.00,WeatherDisplay:10.37,2013-05-01 15:03:00,
2013-05-01 10:08:00,75.3,69.4,29.83,ESE,112,8.1,8.1,82,0.00,CLR,,0.00,WeatherDisplay:10.37,2013-05-01 15:08:00,
2013-05-01 10:13:00,74.8,69.3,29.83,SE,125,4.6,5.5,83,0.00,CLR,,0.00,WeatherDisplay:10.37,2013-05-01 15:13:00,
2013-05-01 10:18:00,74.5,69.0,29.83,SSE,149,5.8,5.8,83,0.00,CLR,,0.00,WeatherDisplay:10.37,2013-05-01 15:18:00,
2013-05-01 10:23:00,74.6,69.1,29.83,SSE,165,6.9,6.9,83,0.00,CLR,,0.00,WeatherDisplay:10.37,2013-05-01 15:23:00,
2013-05-01 10:28:00,74.6,69.4,29.83,ESE,117,6.9,6.9,84,0.00,CLR,,0.00,WeatherDisplay:10.37,2013-05-01 15:28:00,
2013-05-01 10:33:00,74.8,69.3,29.83,SE,146,4.6,4.6,83,0.00,CLR,,0.00,WeatherDisplay:10.37,2013-05-01 15:33:00,
2013-05-01 10:38:00,75.4,69.5,29.83,SE,127,9.2,9.2,82,0.00,CLR,,0.00,WeatherDisplay:10.37,2013-05-01 15:38:00,
2013-05-01 10:43:00,76.0,69.7,29.83,SSE,147,9.2,9.2,81,0.00,CLR,,0.00,WeatherDisplay:10.37,2013-05-01 15:43:00,
2013-05-01 10:48:00,76.2,69.2,29.83,SE,143,11.5,11.5,79,0.00,CLR,,0.00,WeatherDisplay:10.37,2013-05-01 15:48:00,
2013-05-01 10:53:00,76.3,68.9,29.83,SE,138,8.1,8.1,78,0.00,CLR,,0.00,WeatherDisplay:10.37,2013-05-01 15:53:00,
2013-05-01 10:58:00,76.9,69.5,29.83,East,101,10.4,10.4,78,0.00,CLR,,0.00,WeatherDisplay:10.37,2013-05-01 15:58:00,
2013-05-01 11:03:00,76.8,69.0,29.83,East,100,12.7,12.7,77,0.00,CLR,,0.00,WeatherDisplay:10.37,2013-05-01 16:03:00,
2013-05-01 11:08:00,77.2,69.8,29.83,East,99,12.7,12.7,78,0.00,CLR,,0.00,WeatherDisplay:10.37,2013-05-01 16:08:00,
2013-05-01 11:13:00,77.4,69.2,29.83,SE,143,12.7,12.7,76,0.00,CLR,,0.00,WeatherDisplay:10.37,2013-05-01 16:13:00,
2013-05-01 11:18:00,77.7,69.5,29.83,South,179,6.9,6.9,76,0.00,CLR,,0.00,WeatherDisplay:10.37,2013-05-01 16:18:00,
2013-05-01 11:23:00,77.7,69.5,29.83,ESE,105,19.6,19.6,76,0.00,CLR,,0.00,WeatherDisplay:10.37,2013-05-01 16:23:00,
2013-05-01 11:28:00,77.6,68.7,29.83,ESE,105,13.8,13.8,74,0.00,CLR,,0.00,WeatherDisplay:10.37,2013-05-01 16:28:00,
2013-05-01 11:33:00,77.5,68.9,29.82,ESE,103,5.8,5.8,75,0.00,CLR,,0.00,WeatherDisplay:10.37,2013-05-01 16:33:00,
2013-05-01 11:38:00,77.8,68.4,29.82,ESE,105,11.5,11.5,73,0.00,CLR,,0.00,WeatherDisplay:10.37,2013-05-01 16:38:00,
2013-05-01 11:43:00,78.5,68.7,29.82,SE,130,10.4,10.4,72,0.00,CLR,,0.00,WeatherDisplay:10.37,2013-05-01 16:43:00,
2013-05-01 11:48:00,78.6,68.4,29.82,SE,135,15.0,15.0,71,0.00,CLR,,0.00,WeatherDisplay:10.37,2013-05-01 16:48:00,
2013-05-01 11:53:00,78.6,69.6,29.82,SE,131,10.4,10.4,74,0.00,CLR,,0.00,WeatherDisplay:10.37,2013-05-01 16:53:00,
2013-05-01 11:58:00,78.3,68.5,29.82,SE,127,11.5,11.5,72,0.00,CLR,,0.00,WeatherDisplay:10.37,2013-05-01 16:58:00,
2013-05-01 12:03:00,78.6,68.8,29.82,SE,124,10.4,10.4,72,0.00,CLR,,0.00,WeatherDisplay:10.37,2013-05-01 17:03:00,
2013-05-01 12:08:00,78.5,67.9,29.82,SE,130,12.7,12.7,70,0.00,CLR,,0.00,WeatherDisplay:10.37,2013-05-01 17:08:00,
2013-05-01 12:13:00,78.5,68.7,29.82,East,92,9.2,9.2,72,0.00,CLR,,0.00,WeatherDisplay:10.37,2013-05-01 17:13:00,
2013-05-01 12:18:00,79.2,69.0,29.82,SE,135,11.5,11.5,71,0.00,CLR,,0.00,WeatherDisplay:10.37,2013-05-01 17:18:00,
2013-05-01 12:23:00,79.4,68.3,29.82,SE,131,10.4,10.4,69,0.00,CLR,,0.00,WeatherDisplay:10.37,2013-05-01 17:23:00,
2013-05-01 12:28:00,79.9,68.4,29.82,East,101,5.8,5.8,68,0.00,CLR,,0.00,WeatherDisplay:10.37,2013-05-01 17:28:00,
2013-05-01 12:33:00,79.8,68.3,29.82,SE,134,10.4,10.4,68,0.00,CLR,,0.00,WeatherDisplay:10.37,2013-05-01 17:33:00,
2013-05-01 12:38:00,79.6,68.5,29.82,SSE,159,8.1,8.1,69,0.00,CLR,,0.00,WeatherDisplay:10.37,2013-05-01 17:38:00,
2013-05-01 12:43:00,79.8,69.6,29.82,SE,127,11.5,11.5,71,0.00,CLR,,0.00,WeatherDisplay:10.37,2013-05-01 17:43:00,
2013-05-01 12:48:00,80.1,68.2,29.82,SE,144,6.9,6.9,67,0.00,CLR,,0.00,WeatherDisplay:10.37,2013-05-01 17:48:00,
2013-05-01 12:54:00,80.1,68.2,29.82,ESE,110,10.4,10.4,67,0.00,CLR,,0.00,WeatherDisplay:10.37,2013-05-01 17:54:00,
2013-05-01 12:59:00,80.4,68.4,29.82,SE,133,6.9,6.9,67,0.00,CLR,,0.00,WeatherDisplay:10.37,2013-05-01 17:59:00,
2013-05-01 13:04:00,80.7,69.2,29.81,SSE,166,4.6,5.6,68,0.00,CLR,,0.00,WeatherDisplay:10.37,2013-05-01 18:04:00,
2013-05-01 13:09:00,81.4,69.4,29.82,South,177,11.0,11.0,67,0.00,CLR,,0.00,WeatherDisplay:10.37,2013-05-01 18:09:00,
2013-05-01 13:14:00,81.7,67.9,29.82,NE,41,9.2,9.2,63,0.00,CLR,,0.00,WeatherDisplay:10.37,2013-05-01 18:14:00,
2013-05-01 13:19:00,81.2,67.9,29.81,ESE,123,12.7,12.7,64,0.00,CLR,,0.00,WeatherDisplay:10.37,2013-05-01 18:19:00,
2013-05-01 13:24:00,81.3,67.5,29.81,East,90,9.2,9.2,63,0.00,CLR,,0.00,WeatherDisplay:10.37,2013-05-01 18:24:00,
2013-05-01 13:30:00,81.7,69.7,29.81,SSE,163,10.4,10.4,67,0.00,CLR,,0.00,WeatherDisplay:10.37,2013-05-01 18:30:00,
2013-05-01 13:35:00,82.1,68.3,29.81,SSW,194,12.7,12.7,63,0.00,CLR,,0.00,WeatherDisplay:10.37,2013-05-01 18:35:00,
2013-05-01 13:40:00,82.2,67.9,29.81,South,180,8.1,8.1,62,0.00,CLR,,0.00,WeatherDisplay:10.37,2013-05-01 18:40:00,
2013-05-01 13:45:00,82.7,69.3,29.81,SSE,162,11.5,11.5,64,0.00,CLR,,0.00,WeatherDisplay:10.37,2013-05-01 18:45:00,
2013-05-01 13:50:00,83.4,68.1,29.81,SSE,150,11.5,11.5,60,0.00,CLR,,0.00,WeatherDisplay:10.37,2013-05-01 18:50:00,
2013-05-01 13:55:00,83.8,68.4,29.81,SSE,148,11.5,11.5,60,0.00,CLR,,0.00,WeatherDisplay:10.37,2013-05-01 18:55:00,
2013-05-01 14:00:00,83.7,68.3,29.81,ESE,121,9.2,9.2,60,0.00,CLR,,0.00,WeatherDisplay:10.37,2013-05-01 19:00:00,
2013-05-01 14:05:00,83.2,68.8,29.81,ESE,120,12.7,12.7,62,0.00,CLR,,0.00,WeatherDisplay:10.37,2013-05-01 19:05:00,
2013-05-01 14:10:00,82.6,68.7,29.81,SE,144,11.5,11.5,63,0.00,CLR,,0.00,WeatherDisplay:10.37,2013-05-01 19:10:00,
2013-05-01 14:15:00,82.3,68.4,29.81,ESE,108,5.8,5.8,63,0.00,CLR,,0.00,WeatherDisplay:10.37,2013-05-01 19:15:00,
2013-05-01 14:20:00,82.2,68.3,29.81,ESE,112,8.1,8.1,63,0.00,CLR,,0.00,WeatherDisplay:10.37,2013-05-01 19:20:00,
2013-05-01 14:25:00,82.5,68.6,29.81,East,91,9.2,9.2,63,0.00,CLR,,0.00,WeatherDisplay:10.37,2013-05-01 19:25:00,
2013-05-01 14:30:00,82.7,68.8,29.81,SE,127,10.4,10.4,63,0.00,CLR,,0.00,WeatherDisplay:10.37,2013-05-01 19:30:00,
2013-05-01 14:35:00,82.8,68.4,29.80,East,92,8.1,8.1,62,0.00,CLR,,0.00,WeatherDisplay:10.37,2013-05-01 19:35:00,
2013-05-01 14:40:00,83.1,68.7,29.80,South,172,15.0,15.0,62,0.00,CLR,,0.00,WeatherDisplay:10.37,2013-05-01 19:40:00,
2013-05-01 14:45:00,83.2,68.8,29.80,ESE,112,3.5,3.5,62,0.00,CLR,,0.00,WeatherDisplay:10.37,2013-05-01 19:45:00,
2013-05-01 14:50:00,83.1,68.3,29.80,East,93,8.1,8.1,61,0.00,CLR,,0.00,WeatherDisplay:10.37,2013-05-01 19:50:00,
2013-05-01 14:55:00,83.1,68.3,29.80,South,181,3.5,3.5,61,0.00,CLR,,0.00,WeatherDisplay:10.37,2013-05-01 19:55:00,
2013-05-01 15:00:00,83.9,69.0,29.80,SSW,210,11.5,11.5,61,0.00,CLR,,0.00,WeatherDisplay:10.37,2013-05-01 20:00:00,
2013-05-01 15:05:00,84.4,68.5,29.80,WSW,240,4.6,4.6,59,0.00,CLR,,0.00,WeatherDisplay:10.37,2013-05-01 20:05:00,
2013-05-01 15:10:00,84.9,69.9,29.80,ESE,108,6.9,6.9,61,0.00,CLR,,0.00,WeatherDisplay:10.37,2013-05-01 20:10:00,
2013-05-01 15:15:00,85.3,68.8,29.80,SE,144,10.4,10.4,58,0.00,CLR,,0.00,WeatherDisplay:10.37,2013-05-01 20:15:00,
2013-05-01 15:20:00,84.8,68.4,29.80,ESE,115,5.8,5.8,58,0.00,CLR,,0.00,WeatherDisplay:10.37,2013-05-01 20:20:00,
2013-05-01 15:25:00,84.5,68.6,29.80,East,93,5.8,5.8,59,0.00,CLR,,0.00,WeatherDisplay:10.37,2013-05-01 20:25:00,
2013-05-01 15:30:00,84.3,68.4,29.80,East,79,6.9,6.9,59,0.00,CLR,,0.00,WeatherDisplay:10.37,2013-05-01 20:30:00,
2013-05-01 15:35:00,84.1,68.2,29.80,NE,41,6.9,6.9,59,0.00,CLR,,0.00,WeatherDisplay:10.37,2013-05-01 20:35:00,
2013-05-01 15:40:00,84.3,68.9,29.80,SSE,165,3.5,3.5,60,0.00,CLR,,0.00,WeatherDisplay:10.37,2013-05-01 20:40:00,
2013-05-01 15:45:00,84.7,68.8,29.79,South,188,3.5,3.5,59,0.00,CLR,,0.00,WeatherDisplay:10.37,2013-05-01 20:45:00,
2013-05-01 15:50:00,84.9,68.5,29.79,ESE,123,0.0,0.0,58,0.00,CLR,,0.00,WeatherDisplay:10.37,2013-05-01 20:50:00,
2013-05-01 15:55:00,85.3,68.3,29.79,SE,135,11.5,11.5,57,0.00,CLR,,0.00,WeatherDisplay:10.37,2013-05-01 20:55:00,
2013-05-01 16:00:00,85.0,68.6,29.79,NE,36,2.3,2.3,58,0.00,CLR,,0.00,WeatherDisplay:10.37,2013-05-01 21:00:00,
2013-05-01 16:05:00,85.1,69.2,29.78,NNW,342,0.0,0.0,59,0.00,CLR,,0.00,WeatherDisplay:10.37,2013-05-01 21:05:00,
2013-05-01 16:10:00,85.7,69.2,29.78,ESE,117,8.1,8.1,58,0.00,CLR,,0.00,WeatherDisplay:10.37,2013-05-01 21:10:00,
2013-05-01 16:15:00,86.1,69.1,29.78,ESE,121,5.8,5.8,57,0.00,CLR,,0.00,WeatherDisplay:10.37,2013-05-01 21:15:00,
2013-05-01 16:20:00,86.2,69.7,29.78,East,83,9.2,9.2,58,0.00,CLR,,0.00,WeatherDisplay:10.37,2013-05-01 21:20:00,
2013-05-01 16:25:00,86.6,69.6,29.78,ESE,123,8.1,8.1,57,0.00,CLR,,0.00,WeatherDisplay:10.37,2013-05-01 21:25:00,
2013-05-01 16:30:00,86.1,68.6,29.78,SE,126,6.9,6.9,56,0.00,CLR,,0.00,WeatherDisplay:10.37,2013-05-01 21:30:00,
2013-05-01 16:35:00,85.9,68.9,29.78,SSE,164,6.9,6.9,57,0.00,CLR,,0.00,WeatherDisplay:10.37,2013-05-01 21:35:00,
2013-05-01 16:40:00,85.8,68.8,29.78,ENE,78,3.5,3.5,57,0.00,CLR,,0.00,WeatherDisplay:10.37,2013-05-01 21:40:00,
2013-05-01 16:45:00,85.7,69.2,29.78,SSW,198,0.0,0.0,58,0.00,CLR,,0.00,WeatherDisplay:10.37,2013-05-01 21:45:00,
2013-05-01 16:50:00,85.9,69.4,29.78,ESE,102,6.9,6.9,58,0.00,CLR,,0.00,WeatherDisplay:10.37,2013-05-01 21:50:00,
2013-05-01 16:55:00,85.9,69.9,29.78,SSE,153,4.6,4.6,59,0.00,CLR,,0.00,WeatherDisplay:10.37,2013-05-01 21:55:00,
2013-05-01 17:00:00,85.6,68.6,29.78,East,89,4.6,4.6,57,0.00,CLR,,0.00,WeatherDisplay:10.37,2013-05-01 22:00:00,
2013-05-01 17:05:00,85.5,69.0,29.78,ESE,110,5.8,5.8,58,0.00,CLR,,0.00,WeatherDisplay:10.37,2013-05-01 22:05:00,
2013-05-01 17:10:00,85.3,68.8,29.78,ESE,122,5.8,5.8,58,0.00,CLR,,0.00,WeatherDisplay:10.37,2013-05-01 22:10:00,
2013-05-01 17:15:00,85.3,70.3,29.78,SE,127,3.5,3.5,61,0.00,CLR,,0.00,WeatherDisplay:10.37,2013-05-01 22:15:00,
2013-05-01 17:20:00,85.4,68.9,29.78,SSE,154,4.6,4.6,58,0.00,CLR,,0.00,WeatherDisplay:10.37,2013-05-01 22:20:00,
2013-05-01 17:25:00,85.4,69.4,29.77,SE,131,3.5,3.5,59,0.00,CLR,,0.00,WeatherDisplay:10.37,2013-05-01 22:25:00,
2013-05-01 17:30:00,85.4,68.9,29.77,SSE,150,3.5,3.5,58,0.00,CLR,,0.00,WeatherDisplay:10.37,2013-05-01 22:30:00,
2013-05-01 17:35:00,85.4,68.4,29.77,ESE,103,8.1,8.1,57,0.00,CLR,,0.00,WeatherDisplay:10.37,2013-05-01 22:35:00,
2013-05-01 17:40:00,85.7,69.2,29.77,East,94,3.5,3.5,58,0.00,CLR,,0.00,WeatherDisplay:10.37,2013-05-01 22:40:00,
2013-05-01 17:45:00,86.2,69.2,29.77,SSE,162,6.9,6.9,57,0.00,CLR,,0.00,WeatherDisplay:10.37,2013-05-01 22:45:00,
2013-05-01 17:50:00,86.3,69.3,29.77,SE,141,8.1,8.1,57,0.00,CLR,,0.00,WeatherDisplay:10.37,2013-05-01 22:50:00,
2013-05-01 17:55:00,85.8,69.3,29.77,SE,137,3.5,3.5,58,0.00,CLR,,0.00,WeatherDisplay:10.37,2013-05-01 22:55:00,
2013-05-01 18:00:00,85.8,69.3,29.77,SSE,150,5.8,5.8,58,0.00,CLR,,0.00,WeatherDisplay:10.37,2013-05-01 23:00:00,
2013-05-01 18:05:00,86.1,69.6,29.76,SE,143,4.6,4.6,58,0.00,CLR,,0.00,WeatherDisplay:10.37,2013-05-01 23:05:00,
2013-05-01 18:10:00,86.2,69.2,29.76,East,97,3.5,3.5,57,0.00,CLR,,0.00,WeatherDisplay:10.37,2013-05-01 23:10:00,
2013-05-01 18:15:00,86.1,69.1,29.76,SE,135,6.9,6.9,57,0.00,CLR,,0.00,WeatherDisplay:10.37,2013-05-01 23:15:00,
2013-05-01 18:20:00,86.4,69.4,29.76,ENE,61,8.1,8.1,57,0.00,CLR,,0.00,WeatherDisplay:10.37,2013-05-01 23:20:00,
2013-05-01 18:25:00,86.0,69.5,29.76,East,82,5.8,5.8,58,0.00,CLR,,0.00,WeatherDisplay:10.37,2013-05-01 23:25:00,
2013-05-01 18:30:00,86.3,69.8,29.76,ESE,113,5.8,5.8,58,0.00,CLR,,0.00,WeatherDisplay:10.37,2013-05-01 23:30:00,
2013-05-01 18:35:00,86.2,69.2,29.76,East,81,6.9,6.9,57,0.00,CLR,,0.00,WeatherDisplay:10.37,2013-05-01 23:35:00,
2013-05-01 18:40:00,85.8,68.8,29.76,East,88,6.9,6.9,57,0.00,CLR,,0.00,WeatherDisplay:10.37,2013-05-01 23:40:00,
2013-05-01 18:45:00,85.4,68.9,29.76,East,82,6.9,6.9,58,0.00,CLR,,0.00,WeatherDisplay:10.37,2013-05-01 23:45:00,
2013-05-01 18:50:00,85.3,69.3,29.76,East,86,5.8,5.8,59,0.00,CLR,,0.00,WeatherDisplay:10.37,2013-05-01 23:50:00,
2013-05-01 18:55:00,85.1,69.2,29.76,East,99,4.6,4.6,59,0.00,CLR,,0.00,WeatherDisplay:10.37,2013-05-01 23:55:00,
2013-05-01 19:00:00,85.2,69.3,29.77,East,98,4.6,4.6,59,0.00,CLR,,0.00,WeatherDisplay:10.37,2013-05-02 00:00:00,
2013-05-01 19:05:00,85.1,69.7,29.77,ENE,67,5.8,5.8,60,0.00,CLR,,0.00,WeatherDisplay:10.37,2013-05-02 00:05:00,
2013-05-01 19:10:00,84.6,69.2,29.77,East,83,11.5,11.5,60,0.00,CLR,,0.00,WeatherDisplay:10.37,2013-05-02 00:10:00,
2013-05-01 19:15:00,84.1,69.7,29.77,East,91,8.1,8.1,62,0.00,CLR,,0.00,WeatherDisplay:10.37,2013-05-02 00:15:00,
2013-05-01 19:20:00,83.8,69.4,29.77,East,82,9.2,9.2,62,0.00,CLR,,0.00,WeatherDisplay:10.37,2013-05-02 00:20:00,
2013-05-01 19:25:00,83.4,69.5,29.77,ENE,74,9.2,9.2,63,0.00,CLR,,0.00,WeatherDisplay:10.37,2013-05-02 00:25:00,
2013-05-01 19:30:00,83.2,69.3,29.77,East,101,5.8,5.8,63,0.00,CLR,,0.00,WeatherDisplay:10.37,2013-05-02 00:30:00,
2013-05-01 19:35:00,82.9,69.5,29.77,ENE,58,10.4,10.4,64,0.00,CLR,,0.00,WeatherDisplay:10.37,2013-05-02 00:35:00,
2013-05-01 19:40:00,82.7,69.3,29.77,East,79,5.8,5.8,64,0.00,CLR,,0.00,WeatherDisplay:10.37,2013-05-02 00:40:00,
2013-05-01 19:45:00,82.5,69.5,29.78,ENE,67,5.8,5.8,65,0.00,CLR,,0.00,WeatherDisplay:10.37,2013-05-02 00:45:00,
2013-05-01 19:50:00,82.1,69.2,29.78,ENE,72,6.9,6.9,65,0.00,CLR,,0.00,WeatherDisplay:10.37,2013-05-02 00:50:00,
2013-05-01 19:55:00,81.8,69.3,29.78,ENE,68,9.2,9.2,66,0.00,CLR,,0.00,WeatherDisplay:10.37,2013-05-02 00:55:00,
2013-05-01 20:00:00,81.5,69.0,29.79,ENE,70,8.1,8.1,66,0.00,CLR,,0.00,WeatherDisplay:10.37,2013-05-02 01:00:00,
2013-05-01 20:05:00,81.2,69.2,29.79,ENE,71,8.1,8.1,67,0.00,CLR,,0.00,WeatherDisplay:10.37,2013-05-02 01:05:00,
2013-05-01 20:10:00,81.0,69.0,29.79,ENE,74,8.1,8.1,67,0.00,CLR,,0.00,WeatherDisplay:10.37,2013-05-02 01:10:00,
2013-05-01 20:15:00,80.8,69.2,29.79,East,91,5.8,5.8,68,0.00,CLR,,0.00,WeatherDisplay:10.37,2013-05-02 01:15:00,
2013-05-01 20:20:00,80.6,69.1,29.80,East,97,6.9,6.9,68,0.00,CLR,,0.00,WeatherDisplay:10.37,2013-05-02 01:20:00,
2013-05-01 20:25:00,80.5,69.0,29.80,East,85,5.0,5.0,68,0.00,CLR,,0.00,WeatherDisplay:10.37,2013-05-02 01:25:00,
2013-05-01 20:30:00,80.5,69.0,29.80,East,86,8.1,8.1,68,0.00,CLR,,0.00,WeatherDisplay:10.37,2013-05-02 01:30:00,
2013-05-01 20:35:00,80.3,69.2,29.80,ENE,63,5.8,5.8,69,0.00,CLR,,0.00,WeatherDisplay:10.37,2013-05-02 01:35:00,
2013-05-01 20:40:00,80.3,69.2,29.80,East,84,6.9,6.9,69,0.00,CLR,,0.00,WeatherDisplay:10.37,2013-05-02 01:40:00,
2013-05-01 20:45:00,80.3,69.2,29.80,East,87,4.6,4.6,69,0.00,CLR,,0.00,WeatherDisplay:10.37,2013-05-02 01:45:00,
2013-05-01 20:50:00,80.2,69.1,29.81,East,89,5.8,5.8,69,0.00,CLR,,0.00,WeatherDisplay:10.37,2013-05-02 01:50:00,
2013-05-01 20:55:00,80.1,69.0,29.80,ENE,75,4.6,4.6,69,0.00,CLR,,0.00,WeatherDisplay:10.37,2013-05-02 01:55:00,
2013-05-01 21:00:00,80.0,68.9,29.81,East,81,5.8,5.8,69,0.00,CLR,,0.00,WeatherDisplay:10.37,2013-05-02 02:00:00,
2013-05-01 21:05:00,79.9,68.8,29.81,ENE,66,5.8,5.8,69,0.00,CLR,,0.00,WeatherDisplay:10.37,2013-05-02 02:05:00,
2013-05-01 21:10:00,79.7,69.0,29.81,East,90,4.6,4.6,70,0.00,CLR,,0.00,WeatherDisplay:10.37,2013-05-02 02:10:00,
2013-05-01 21:15:00,79.6,69.0,29.82,East,86,4.6,4.6,70,0.00,CLR,,0.00,WeatherDisplay:10.37,2013-05-02 02:15:00,
2013-05-01 21:20:00,79.4,68.8,29.82,ENE,78,4.6,4.6,70,0.00,CLR,,0.00,WeatherDisplay:10.37,2013-05-02 02:20:00,
2013-05-01 21:25:00,79.3,68.7,29.82,East,82,4.6,4.6,70,0.00,CLR,,0.00,WeatherDisplay:10.37,2013-05-02 02:25:00,
2013-05-01 21:30:00,79.1,68.5,29.82,ENE,75,3.5,3.5,70,0.00,CLR,,0.00,WeatherDisplay:10.37,2013-05-02 02:30:00,
2013-05-01 21:35:00,79.0,68.8,29.83,ENE,64,4.6,4.6,71,0.00,CLR,,0.00,WeatherDisplay:10.37,2013-05-02 02:35:00,
2013-05-01 21:40:00,78.8,68.6,29.83,East,86,3.5,3.5,71,0.00,CLR,,0.00,WeatherDisplay:10.37,2013-05-02 02:40:00,
2013-05-01 21:45:00,78.7,68.9,29.83,East,96,3.5,3.5,72,0.00,CLR,,0.00,WeatherDisplay:10.37,2013-05-02 02:45:00,
2013-05-01 21:50:00,78.6,68.8,29.83,East,85,8.1,8.1,72,0.00,CLR,,0.00,WeatherDisplay:10.37,2013-05-02 02:50:00,
2013-05-01 21:55:00,78.6,68.8,29.84,East,86,2.3,2.3,72,0.00,CLR,,0.00,WeatherDisplay:10.37,2013-05-02 02:55:00,
2013-05-01 22:00:00,78.5,68.7,29.84,East,90,5.8,5.8,72,0.00,CLR,,0.00,WeatherDisplay:10.37,2013-05-02 03:00:00,
2013-05-01 22:05:00,78.5,69.1,29.84,East,81,4.6,4.6,73,0.00,CLR,,0.00,WeatherDisplay:10.37,2013-05-02 03:05:00,
2013-05-01 22:10:00,78.4,69.0,29.85,East,92,8.1,8.1,73,0.00,CLR,,0.00,WeatherDisplay:10.37,2013-05-02 03:10:00,
2013-05-01 22:15:00,78.4,69.0,29.85,ENE,64,3.5,3.5,73,0.00,CLR,,0.00,WeatherDisplay:10.37,2013-05-02 03:15:00,
2013-05-01 22:20:00,78.3,68.9,29.86,ESE,103,9.2,9.2,73,0.00,CLR,,0.00,WeatherDisplay:10.37,2013-05-02 03:20:00,
2013-05-01 22:25:00,78.2,68.8,29.86,East,90,4.6,4.6,73,0.00,CLR,,0.00,WeatherDisplay:10.37,2013-05-02 03:25:00,
2013-05-01 22:30:00,78.0,69.0,29.86,East,82,5.8,5.8,74,0.00,CLR,,0.00,WeatherDisplay:10.37,2013-05-02 03:30:00,
2013-05-01 22:35:00,77.9,68.9,29.86,ENE,75,4.6,4.6,74,0.00,CLR,,0.00,WeatherDisplay:10.37,2013-05-02 03:35:00,
2013-05-01 22:40:00,77.8,68.8,29.86,East,84,6.9,6.9,74,0.00,CLR,,0.00,WeatherDisplay:10.37,2013-05-02 03:40:00,
2013-05-01 22:45:00,77.8,68.8,29.87,East,82,4.0,4.0,74,0.00,CLR,,0.00,WeatherDisplay:10.37,2013-05-02 03:45:00,
2013-05-01 22:50:00,77.7,68.7,29.87,ESE,112,5.8,5.8,74,0.00,CLR,,0.00,WeatherDisplay:10.37,2013-05-02 03:50:00,
2013-05-01 22:55:00,77.6,68.7,29.87,ESE,103,6.0,6.0,74,0.00,CLR,,0.00,WeatherDisplay:10.37,2013-05-02 03:55:00,
2013-05-01 23:00:00,77.5,68.9,29.88,East,94,7.0,7.0,75,0.00,CLR,,0.00,WeatherDisplay:10.37,2013-05-02 04:00:00,
2013-05-01 23:01:00,77.5,68.9,29.88,ESE,109,6.9,6.9,75,0.00,CLR,,0.00,WeatherDisplay:10.37,2013-05-02 04:01:00,
2013-05-01 23:06:00,77.5,68.9,29.88,ESE,104,4.6,4.6,75,0.00,CLR,,0.00,WeatherDisplay:10.37,2013-05-02 04:06:00,
2013-05-01 23:11:00,77.4,69.2,29.87,ESE,117,5.8,5.8,76,0.00,CLR,,0.00,WeatherDisplay:10.37,2013-05-02 04:11:00,
2013-05-01 23:16:00,77.2,69.4,29.88,ESE,121,5.0,5.0,77,0.00,CLR,,0.00,WeatherDisplay:10.37,2013-05-02 04:16:00,
2013-05-01 23:21:00,77.0,69.2,29.88,ESE,114,5.8,5.8,77,0.00,CLR,,0.00,WeatherDisplay:10.37,2013-05-02 04:21:00,
2013-05-01 23:26:00,76.9,69.5,29.88,SE,127,4.6,4.6,78,0.00,CLR,,0.00,WeatherDisplay:10.37,2013-05-02 04:26:00,
2013-05-01 23:31:00,76.8,69.4,29.88,East,81,4.0,4.0,78,0.00,CLR,,0.00,WeatherDisplay:10.37,2013-05-02 04:31:00,
2013-05-01 23:36:00,76.6,69.6,29.88,East,93,3.5,3.5,79,0.00,CLR,,0.00,WeatherDisplay:10.37,2013-05-02 04:36:00,
2013-05-01 23:41:00,76.4,69.8,29.88,East,88,3.5,3.5,80,0.00,CLR,,0.00,WeatherDisplay:10.37,2013-05-02 04:41:00,
2013-05-01 23:46:00,76.3,69.7,29.89,East,95,0.0,0.0,80,0.00,CLR,,0.00,WeatherDisplay:10.37,2013-05-02 04:46:00,
2013-05-01 23:51:00,76.1,69.5,29.89,East,95,0.0,0.0,80,0.00,CLR,,0.00,WeatherDisplay:10.37,2013-05-02 04:51:00,
2013-05-01 23:56:00,76.0,69.7,29.89,East,91,0.0,0.0,81,0.00,CLR,,0.00,WeatherDisplay:10.37,2013-05-02 04:56:00,